User: anonymous   Login
Location: Hysolar-Haus
(48.7436°N, 9.0965°E)
Time: 14:35:50
(UTC+00:00)
Language:

Tiros 1 - Orbit

View from above orbital plane
View from above orbital plane
View from above satellite
View from above satellite

Ground track
Ground track

The orbit data is extracted from the following two-line orbital elements,

1    29U 60002B   19323.76271896 -.00000123 +00000-0 +12780-4 0  9992
2    29 048.3792 222.9123 0023781 050.0750 310.2247 14.74329040187453
Epoch (UTC): 19 November 2019 18:18:18
Eccentricity: 0.0023781
inclination: 48.3792°
perigee height: 630 km
apogee height: 664 km
right ascension of ascending node: 222.9123°
argument of perigee: 50.0750°
revolutions per day: 14.74329040
mean anomaly at epoch: 310.2247°
orbit number at epoch: 18745

The dashed part of the orbit path shows where the satellite is in the earth's shadow,  

DLR